Regional Weather Roundup
Issued by NWS

Home | Current Version | Previous Version | Text Only | Print | Product List | Glossary On
Versions: 1 2 3 4 5 6 7 8 9 10 11 12 13 14 15 16 17 18 19 20 21 22 23 24 25 26 27 28 29 30 31 32 33 34 35 36 37 38 39 40 41 42 43 44 45 46 47 48 49 50
000
ASCA44 KEWX 181120
RWRMX

LATIN AMERICA AND CARIBBEAN REGIONAL WEATHER ROUNDUP
NATIONAL WEATHER SERVICE AUSTIN/SAN ANTONIO TX
500 AM CST SUN FEB 18 2018

NOTE: "FAIR" INDICATED FEW OR NO CLOUDS BELOW 12,000 FEET WITH NO
SIGNIFICANT WEATHER AND/OR OBSTRUCTIONS TO VISIBILITY.

BAJA CALIFORNIA

CITY           SKY/WX    TMP DP  RH WIND       PRES   REMARKS
S.J. DEL CABO    N/A    N/A N/A N/A MISG        N/A
TIJUANA        PTCLDY    54  32  43 CALM      30.03F

NORTHWESTERN MEXICO

CITY           SKY/WX    TMP DP  RH WIND       PRES   REMARKS
DURANGO        PTCLDY    52  43  71 CALM      30.21
HERMOSILLO     MOCLDY    59  59 100 CALM      30.00S

NORTHEASTERN MEXICO

CITY           SKY/WX    TMP DP  RH WIND       PRES   REMARKS
MONCLOVA         N/A    N/A N/A N/A MISG        N/A
MONTERREY        N/A    N/A N/A N/A MISG        N/A
REYNOSA          N/A    N/A N/A N/A MISG        N/A
TORREON        PTCLDY    68  55  64 W7        30.03
CD. VICTORIA     N/A    N/A N/A N/A MISG        N/A

WESTERN MEXICO

CITY           SKY/WX    TMP DP  RH WIND       PRES   REMARKS
AGUASCALIENTES CLEAR     54  34  47 N6        30.23
COLIMA           N/A    N/A N/A N/A MISG        N/A
DEL BAJIO      PTCLDY    55  43  62 CALM      30.27S
GUADALAJARA    CLEAR     57  41  54 SW2       30.16S
MAZATLAN       CLEAR     63  61  94 CALM      29.92F
P. VALLARTA    MOCLDY    66  66 100 CALM      29.93R
URUAPAN          N/A    N/A N/A N/A MISG        N/A
ZACATECAS        N/A    N/A N/A N/A MISG        N/A

CENTRAL MEXICO

CITY           SKY/WX    TMP DP  RH WIND       PRES   REMARKS
CUERNAVACA       N/A    N/A N/A N/A MISG        N/A
MEXICO CITY    CLEAR     50  34  53 E3        30.31S
MORELIA        PTCLDY    48  39  71 CALM      30.22S
POZA RICA        N/A    N/A N/A N/A MISG        N/A
PUEBLA         CLEAR     43  34  70 NW2       30.32
S. LUIS POTOSI PTCLDY    48  43  81 CALM      30.25F
TAMPICO        PTCLDY    70  70 100 CALM      30.05
TOLUCA         CLEAR     37  28  70 CALM      30.34S

SOUTHERN MEXICO

CITY           SKY/WX    TMP DP  RH WIND       PRES   REMARKS
ACAPULCO       CLEAR     75  72  88 N6        29.93S
B. DE HUATULCO   N/A    N/A N/A N/A MISG        N/A
P. ESCONDIDO     N/A    N/A N/A N/A MISG        N/A
VERACRUZ         N/A    N/A N/A N/A MISG        N/A

YUCATAN PENINSULA

CITY           SKY/WX    TMP DP  RH WIND       PRES   REMARKS
CAMPECHE       CLEAR     70  70 100 SE12      30.01S
CANCUN         PTCLDY    75  68  78 E6        30.09S
CHETUMAL       PTCLDY    73  70  88 NE7       30.05R
CD. DEL CARMEN   N/A    N/A N/A N/A MISG        N/A
COZUMEL        CLEAR     68  66  94 CALM      30.07R
MERIDA         PTCLDY    70  66  88 E8        30.08S
MINATITLAN       N/A    N/A N/A N/A MISG        N/A
TAPACHULA      CLEAR     68  68 100 CALM      29.91R
VILLAHERMOSA   CLEAR     72  66  83 E15       30.01

CENTRAL AMERICA

CITY           SKY/WX    TMP DP  RH WIND       PRES   REMARKS
BELIZE CITY    MOCLDY    79  73  83 E12       30.01
MANAGUA        MOSUNNY   73  68  83 E14       29.92S

CARIBBEAN

CITY           SKY/WX    TMP DP  RH WIND       PRES   REMARKS
ARUBA          PTCLDY    77  70  78 E16       29.97R
CURACAO        PTCLDY    72  66  83 SE7       30.00R
KINGSTON       MOCLDY    77  72  83 VRB2      30.03R
NASSAU         PTCLDY    72  64  78 CALM      30.22R
SAN JUAN       PTCLDY    72  70  94 SE3       30.12R
SANTO DOMINGO  PTCLDY    64  63  94 N5        30.09S
ST. CROIX      PTCLDY    72  68  88 NE7       30.11R
ST. KITTS      PTCLDY    75  66  73 NE18      30.09R
ST. MAARTEN    PTCLDY    75  64  69 E12       30.09S
ST. THOMAS     PTCLDY    72  70  94 E6        30.10R

$$




USA.gov is the U.S. government's official web portal to all federal, state and local government web resources and services.